GFSNGP_925_rhum_315.txt.gz
RH
48 42 50 59 64 72 89 81 95 68 68 57 72 89 92 76 67 63 62 62 65 69 71 76 83 90 91 84 77 83 89 93 92 90 84 79 78 82 84 83 82 81 81 80
75 47 43 55 50 55 61 66 75 78 87 90 84 77 76 77 79 81 84 71 67 66 70 78 87 93 95 90 77 75 79 81 84 96 94 86 82 86 90 88 85 85 83 82
84 45 49 69 56 59 72 73 94 87 83 78 80 79 81 82 83 87 78 74 73 73 79 86 91 97 95 84 75 77 84 85 89 99 100 96 93 93 92 92 89 88 87 84
85 58 90 49 63 63 76 86 79 77 77 78 82 78 78 75 81 79 78 78 78 82 87 89 92 77 78 78 83 86 91 93 96 98 100 100 100 100 100 99 96 94 90 90
87 67 47 80 82 84 88 77 76 79 70 69 70 74 82 78 80 78 79 83 93 94 96 98 90 84 96 91 92 92 91 97 95 97 100 100 100 100 100 100 98 95 92 89
63 80 80 72 63 59 70 83 69 71 71 74 66 80 89 79 76 74 73 78 88 92 95 94 93 95 100 100 100 98 92 96 94 97 100 100 100 100 100 100 99 96 92 90
58 70 55 70 62 65 93 80 65 64 70 77 81 78 76 66 64 60 65 68 71 79 83 86 89 97 99 99 98 92 96 96 95 98 100 100 100 100 100 99 98 97 95 93
53 76 72 68 60 81 83 68 64 61 61 75 69 68 65 54 50 52 56 58 61 67 72 74 79 81 87 91 89 94 98 100 100 100 100 100 100 99 94 97 96 94 93 88
77 77 76 68 74 69 71 73 65 68 62 63 63 57 50 49 48 48 50 52 54 59 63 65 67 70 78 81 85 88 92 98 100 100 100 98 92 89 92 92 94 92 90 89
82 78 71 68 58 58 56 65 59 55 56 54 59 53 51 48 48 49 50 51 53 54 57 62 62 64 68 73 77 83 90 97 100 100 90 88 86 86 82 91 94 92 91 89
76 67 71 67 65 65 61 54 54 52 55 57 56 55 54 54 54 54 54 55 58 59 62 61 59 63 70 77 85 90 95 100 98 89 90 84 83 80 75 86 92 94 95 96
74 79 85 77 70 65 78 72 64 66 68 63 63 66 63 65 65 66 68 67 68 67 66 67 75 85 90 93 95 100 100 95 92 87 87 80 81 74 72 75 84 83 86 95
79 76 86 85 82 79 86 81 78 82 86 90 83 80 79 77 79 79 82 87 86 85 89 92 96 98 96 95 100 100 100 98 95 84 80 80 76 78 77 79 80 80 82 90
80 88 91 75 78 70 80 85 86 91 90 91 89 89 90 89 88 90 91 90 92 97 100 99 97 96 87 90 99 100 99 93 85 79 82 76 74 75 78 82 87 86 83 85
79 79 88 78 88 88 87 87 89 89 86 86 85 89 92 95 95 93 91 92 98 100 100 94 96 90 77 83 98 99 97 93 87 89 86 72 72 76 81 80 84 89 87 85
75 80 85 92 88 83 81 78 80 81 78 80 85 87 90 94 97 100 100 100 100 97 92 94 95 77 78 87 90 100 99 82 76 88 85 72 74 78 82 80 84 89 90 93
90 76 62 60 67 71 76 75 76 81 82 82 82 84 89 91 92 92 91 92 96 99 100 100 100 93 94 87 92 100 97 89 81 87 78 75 75 82 84 83 84 91 92 94
69 68 73 76 79 75 68 64 63 66 68 70 72 76 80 83 85 84 86 89 94 96 96 96 96 94 94 96 100 98 94 94 88 83 78 76 78 78 81 86 88 93 94 95
60 60 64 67 67 65 66 63 60 60 61 63 65 69 74 76 78 79 81 85 88 89 83 79 78 80 94 87 87 97 95 92 84 83 76 73 75 78 85 91 91 91 96 96
70 72 75 78 80 80 84 87 83 81 73 66 66 66 67 70 69 70 74 79 80 82 82 88 86 87 87 97 82 87 90 91 92 89 77 76 78 82 87 88 88 94 97 98
73 75 77 76 81 83 82 90 95 92 87 83 84 87 80 74 74 74 77 78 72 70 73 75 81 87 78 79 80 84 85 90 96 86 81 84 84 86 88 92 96 98 97 100
86 89 90 90 91 90 85 85 93 96 94 92 91 91 92 90 81 79 77 76 74 73 76 81 79 74 74 74 89 94 97 98 93 88 86 86 89 92 94 98 100 100 100 100
90 88 89 90 91 91 90 90 92 96 96 95 93 93 93 92 89 86 83 73 72 72 73 76 77 81 84 92 96 97 98 99 96 93 92 93 95 97 98 100 99 100 100 100
86 86 84 85 88 90 87 80 78 82 89 98 98 98 99 96 92 88 89 85 79 79 83 83 82 88 87 97 98 98 98 98 97 96 95 88 97 96 99 100 100 100 100 93
94 94 93 90 89 84 84 87 91 89 84 84 87 90 98 100 99 90 90 92 89 83 89 81 76 78 95 97 98 98 97 97 94 92 98 100 97 98 99 100 99 98 98 74
94 93 91 93 91 94 94 94 90 83 86 92 91 89 88 89 96 95 99 97 100 98 95 95 89 85 83 84 83 88 97 97 92 93 94 98 100 100 100 96 87 84 77 72
90 84 91 93 83 84 90 91 88 88 84 85 90 85 84 85 88 91 96 99 98 95 89 91 94 92 89 90 90 88 90 93 91 97 96 96 100 100 100 91 82 80 73 69

GFSNGP_925_rhum_318.txt.gz
RH
58 52 62 68 71 74 84 85 96 70 78 69 98 100 99 94 91 87 87 91 90 92 92 88 82 84 83 79 74 70 74 70 66 69 72 78 86 90 86 84 88 91 91 89
78 60 60 68 60 66 65 66 65 67 85 97 91 85 92 96 90 84 90 87 82 86 89 86 85 86 88 79 70 71 69 68 69 71 77 84 94 92 92 93 94 94 95 94
84 60 66 81 69 70 76 91 93 99 96 94 96 95 96 96 92 96 95 92 87 87 85 83 82 82 91 78 77 74 72 67 71 78 86 88 89 95 99 98 99 100 99 98
89 84 97 77 76 68 84 97 89 92 94 88 96 94 90 93 97 97 93 87 85 87 86 84 82 89 88 82 86 88 85 77 73 84 88 84 90 100 100 100 100 100 100 98
96 89 65 83 91 92 94 91 88 91 89 85 82 82 97 96 88 93 92 94 90 86 85 83 87 88 92 94 90 94 88 84 83 84 88 90 98 100 100 100 100 100 99 97
94 99 94 99 77 77 85 100 83 90 91 93 82 100 98 90 76 80 79 78 76 75 75 92 84 80 88 97 96 96 88 90 89 84 87 95 100 100 100 100 100 100 96 95
87 80 74 79 72 75 99 94 80 80 86 92 100 92 86 73 74 66 59 58 58 66 68 71 72 75 85 94 97 85 88 86 88 84 90 98 100 100 100 100 100 99 98 95
77 87 92 81 71 90 96 88 78 76 81 85 83 76 71 58 56 54 54 55 55 59 61 62 64 67 74 80 76 79 79 86 88 87 90 100 98 98 100 99 98 94 94 94
95 89 88 82 86 85 86 92 81 82 78 70 72 67 56 56 53 51 52 52 52 54 57 58 60 61 67 65 67 74 80 84 87 87 89 90 100 100 100 95 93 90 92 92
87 84 83 82 80 73 89 81 73 61 62 58 72 65 61 57 54 54 55 55 54 56 60 64 62 65 63 63 72 78 86 92 94 98 98 95 84 100 93 95 88 87 93 93
92 84 82 87 84 85 75 68 67 61 60 60 63 64 62 65 63 63 62 60 61 63 64 66 70 71 69 75 82 93 98 100 100 100 99 98 96 91 91 82 80 79 90 97
93 95 92 84 79 79 84 79 76 84 80 70 71 76 74 74 74 74 74 75 74 74 79 76 76 82 85 82 93 100 100 100 100 96 97 100 91 90 82 73 70 73 78 84
91 86 93 83 80 81 89 84 83 88 83 85 85 86 86 84 81 84 82 86 86 87 86 88 92 96 92 89 94 98 100 100 100 97 100 92 86 93 88 77 74 75 77 84
85 91 95 82 88 70 78 78 79 85 89 91 90 89 93 94 93 94 93 89 88 93 96 98 100 100 86 80 88 96 100 97 94 93 92 89 94 96 78 82 85 85 75 84
85 83 83 77 83 87 83 86 90 91 87 88 89 94 95 96 96 95 92 92 94 99 100 100 100 91 79 82 97 99 100 100 99 96 96 96 93 76 79 82 89 85 84 84
70 73 76 85 84 80 80 84 92 89 80 76 80 84 87 91 94 96 97 98 100 97 95 96 99 89 87 90 96 100 100 99 89 92 89 96 82 80 79 87 88 86 87 90
81 78 71 75 77 79 82 78 78 80 80 80 79 80 82 89 94 96 94 93 97 100 100 100 100 98 96 94 98 100 100 100 95 88 98 86 85 82 87 89 85 90 91 91
73 75 73 74 80 77 74 71 72 72 71 67 65 66 72 76 79 81 83 85 89 91 93 95 96 95 90 88 95 100 100 100 100 98 98 85 84 89 84 84 90 94 93 91
80 77 80 82 81 83 87 85 82 82 84 82 80 82 80 77 75 76 79 84 89 86 83 82 83 80 97 86 80 93 100 100 98 94 95 85 80 85 85 90 93 94 94 95
70 71 72 74 78 82 88 90 91 93 90 87 90 91 89 84 79 77 80 87 82 79 78 81 85 91 89 92 82 89 99 94 86 90 99 92 91 83 90 89 90 97 98 99
82 83 87 86 86 86 85 85 92 93 88 86 92 92 89 88 89 88 91 91 78 75 75 79 92 97 96 88 76 75 80 90 90 92 98 92 86 89 94 98 100 100 100 99
87 89 90 90 92 91 88 88 94 96 96 94 94 95 95 93 90 89 88 90 85 81 83 89 91 83 77 76 88 91 93 91 95 97 95 87 88 93 97 100 100 100 100 100
91 90 91 92 93 92 93 91 89 91 96 96 95 95 95 94 93 94 87 78 81 90 88 89 79 70 73 88 96 93 96 95 93 92 92 90 87 97 100 94 100 100 100 100
91 92 91 93 96 95 91 84 84 85 91 95 99 98 99 96 93 93 92 87 84 88 96 94 88 80 78 97 97 86 97 99 98 96 91 89 87 90 92 96 98 96 95 100
95 94 95 95 94 90 90 93 94 89 85 84 82 81 82 87 97 89 90 92 88 89 98 93 82 75 95 94 94 96 95 93 89 82 78 91 100 99 98 97 92 98 100 79
94 93 94 96 95 95 95 96 93 92 95 94 92 86 86 92 97 96 99 96 98 97 98 95 92 80 66 68 72 78 80 85 88 89 86 84 92 93 99 93 89 88 82 78
94 88 94 93 84 89 94 92 84 86 91 96 96 96 97 97 97 95 96 99 98 96 94 97 98 91 92 86 88 80 80 84 93 94 88 86 90 96 98 93 89 83 80 75

GFSNGP_925_rhum_321.txt.gz
RH
58 59 72 71 78 78 81 64 77 61 72 65 100 100 99 98 89 81 87 88 89 95 96 90 82 77 74 66 67 68 68 65 63 61 64 70 69 72 81 82 75 75 86 87
81 63 65 79 72 80 79 75 76 79 84 100 98 91 91 88 86 88 88 87 86 86 88 84 78 73 71 70 71 72 73 74 67 64 71 76 78 85 78 74 81 86 90 94
85 68 84 91 76 72 82 96 86 97 82 100 99 100 100 90 90 96 98 94 88 81 79 76 74 72 77 81 81 78 79 77 74 72 74 73 81 84 83 85 89 93 95 98
91 90 96 72 88 71 84 96 100 96 97 96 96 92 92 97 100 99 94 91 83 83 85 79 71 76 78 81 82 83 84 82 78 78 81 81 82 82 84 90 100 100 100 100
98 96 76 85 90 94 80 80 98 97 96 94 92 87 90 100 94 87 82 78 77 79 80 76 77 77 77 82 82 85 86 81 79 81 84 87 86 82 84 100 100 100 95 96
97 100 99 86 85 90 83 97 93 97 98 98 92 100 89 94 84 79 66 65 68 62 61 70 73 67 76 77 80 86 82 80 81 80 85 86 81 82 87 100 100 100 96 94
97 92 83 84 80 84 90 72 85 90 93 100 100 91 80 78 80 61 60 57 54 61 63 58 60 62 69 70 76 71 74 76 76 81 82 82 81 84 95 98 100 100 100 98
89 89 87 86 80 92 79 98 90 88 92 95 91 86 80 69 64 60 59 58 55 57 54 53 55 62 66 69 61 68 64 74 78 75 79 80 84 84 96 100 100 100 99 95
82 82 84 89 76 84 95 92 92 95 85 82 76 69 60 66 63 59 57 57 57 58 58 56 58 62 66 63 66 64 70 77 74 70 77 80 92 99 100 100 100 98 97 93
80 74 92 91 84 84 92 96 82 75 74 66 69 60 58 58 57 55 56 60 59 60 60 62 66 66 65 67 74 71 76 79 84 93 96 98 90 94 100 100 100 100 97 96
95 82 84 84 88 90 78 71 74 64 63 65 68 72 66 64 62 64 63 64 66 67 67 69 70 72 77 77 75 83 91 98 100 100 100 99 100 99 100 97 96 92 87 83
83 73 80 75 77 72 83 70 68 74 76 72 75 78 72 73 74 77 78 78 77 76 78 82 85 89 84 80 85 94 100 100 100 99 100 100 100 100 93 80 76 71 68 74
69 79 87 72 75 72 82 77 75 81 83 85 82 84 84 87 85 85 83 86 88 89 89 90 92 94 88 84 91 100 100 100 100 100 100 100 100 99 97 90 79 69 76 78
84 92 79 73 84 65 72 68 71 77 81 83 85 88 91 92 92 94 94 90 89 92 93 93 98 99 91 94 97 98 98 99 99 99 99 95 96 99 97 93 83 81 82 81
81 81 72 63 68 73 74 82 90 87 82 84 85 93 94 97 96 95 94 93 93 98 99 98 100 94 80 84 94 98 100 100 100 100 100 98 98 98 88 85 85 88 90 80
65 79 81 86 81 78 78 80 85 85 80 80 82 85 86 86 89 93 95 96 100 98 95 95 96 84 86 92 96 100 100 100 94 98 98 94 94 98 92 86 87 92 87 91
71 80 76 80 79 79 81 78 80 84 83 83 82 82 84 92 93 93 91 95 100 100 100 100 100 95 97 99 100 100 100 100 100 93 97 98 94 100 92 91 96 88 90 94
62 66 73 80 89 90 86 80 78 80 84 84 88 92 92 90 89 85 82 85 90 94 98 99 97 94 92 89 93 100 100 100 100 100 100 100 100 97 98 90 91 94 96 96
92 90 89 88 85 89 92 90 87 87 88 87 92 92 89 89 90 92 91 95 96 93 85 84 85 82 97 96 88 96 99 100 100 100 100 92 92 85 87 91 95 96 97 98
87 86 88 90 92 93 91 90 91 93 90 87 86 92 90 86 83 88 92 93 90 88 87 91 91 92 91 89 87 89 84 92 97 98 98 95 95 99 96 87 90 99 100 99
89 91 92 91 91 90 88 85 92 94 90 91 93 92 90 88 86 86 91 90 79 78 89 92 96 98 98 94 93 89 71 69 75 89 97 94 95 96 90 86 97 100 100 100
90 92 91 92 93 92 90 92 97 96 96 95 93 94 94 93 91 91 91 89 84 82 89 99 99 91 87 84 92 90 85 88 94 99 100 100 98 94 84 91 99 100 100 100
92 92 93 93 93 93 94 95 94 95 94 95 94 95 96 94 94 95 90 80 84 85 87 96 91 83 82 88 95 98 98 98 97 91 95 96 90 81 91 93 98 99 97 98
93 93 93 94 95 94 91 85 85 88 90 94 96 97 98 95 92 91 94 89 82 87 90 91 91 82 79 94 94 95 95 84 74 100 98 95 92 83 89 97 98 98 95 99
93 94 94 94 93 90 92 94 96 94 96 97 96 94 91 89 94 92 96 96 91 92 96 88 80 81 96 94 86 84 96 98 99 94 85 75 79 93 92 88 89 98 100 91
93 92 94 94 95 92 85 92 94 92 88 90 83 90 96 97 96 95 99 95 98 97 99 97 88 81 72 69 77 83 78 73 83 84 89 96 97 93 80 79 89 95 94 86
90 75 83 81 82 87 94 94 93 89 91 90 96 86 90 96 96 93 88 93 93 94 93 95 96 90 97 96 94 86 88 90 92 93 91 89 95 97 95 95 97 95 89 81

GFSNGP_925_rhum_327.txt.gz
RH
73 60 78 90 91 82 95 83 94 68 78 69 81 87 88 90 84 70 76 80 91 95 92 84 75 67 64 65 63 61 64 67 66 66 66 68 66 66 65 65 74 68 78 68
91 66 63 81 82 81 74 74 76 76 75 92 98 94 90 84 82 78 76 80 87 88 84 78 68 64 66 68 67 69 73 72 72 74 76 76 74 73 74 71 66 71 71 69
92 83 80 83 80 76 88 99 81 86 77 98 94 96 94 85 81 80 82 89 91 81 69 62 61 62 66 64 69 74 76 71 70 72 76 76 76 77 77 79 76 75 76 76
95 95 96 73 92 81 85 88 100 96 99 97 93 91 89 88 88 86 92 88 76 66 65 60 58 62 60 63 65 69 74 72 66 66 70 74 78 79 78 79 84 86 83 83
96 94 83 87 88 78 70 67 92 97 97 97 96 93 81 84 90 82 82 72 71 62 62 58 58 52 53 54 63 68 72 74 67 63 66 72 77 74 76 80 80 85 90 88
95 96 96 75 86 91 78 83 89 96 98 98 94 96 64 85 96 88 79 76 70 54 58 63 58 56 52 57 68 69 60 59 64 67 68 72 73 68 76 79 86 90 85 85
92 95 91 77 89 77 77 69 91 96 92 98 98 79 78 77 79 74 69 62 59 65 67 64 62 57 57 61 64 60 56 58 65 68 68 72 71 71 72 71 76 81 92 78
87 99 86 80 92 84 67 94 86 87 85 89 86 76 75 73 75 71 71 70 63 67 74 68 66 65 67 70 57 60 59 60 68 71 68 75 78 72 71 80 89 95 93 84
76 79 82 86 80 82 91 83 86 92 80 79 78 74 72 72 64 58 58 56 55 58 68 69 64 65 79 66 64 66 65 70 74 72 79 81 72 73 86 96 100 100 100 100
78 74 83 78 80 84 86 87 79 77 77 76 84 75 69 58 55 55 53 53 55 58 62 65 65 66 71 68 69 72 76 78 78 85 88 90 95 97 98 100 100 100 100 100
91 77 71 72 78 71 66 64 73 70 73 70 66 64 56 57 56 57 59 61 62 64 64 66 69 71 72 77 78 81 87 90 96 100 95 91 90 94 97 91 99 100 92 88
75 61 62 58 63 74 73 65 57 61 60 56 59 67 64 66 65 67 71 72 73 75 76 78 81 84 84 84 86 93 100 100 98 98 100 100 100 100 96 94 88 83 82 88
54 72 77 62 81 70 72 66 61 67 67 73 71 76 77 80 80 84 89 92 93 91 90 90 90 91 91 91 93 98 100 100 100 100 100 100 100 100 100 87 87 88 83 85
87 84 74 81 65 55 68 64 67 71 72 77 79 81 84 86 88 91 90 88 89 92 93 94 97 96 88 87 92 97 100 100 98 100 100 100 100 100 100 100 100 95 78 83
68 76 67 59 66 70 71 74 80 84 80 82 84 90 90 92 92 90 87 87 91 95 100 100 100 100 85 90 100 100 100 100 100 100 100 100 100 100 100 100 100 99 98 89
57 73 77 91 86 84 82 83 88 88 86 86 89 89 89 91 93 94 94 95 100 96 92 94 99 88 85 93 99 100 100 100 96 100 100 99 100 100 99 94 94 98 95 95
95 89 81 85 81 81 82 81 84 85 81 83 84 84 87 93 97 97 97 98 99 100 100 100 98 94 99 100 99 100 100 100 100 97 98 96 95 96 98 94 95 99 100 94
82 87 91 93 92 91 89 87 88 91 92 91 94 95 94 93 91 88 90 91 94 98 98 98 99 99 99 95 99 100 100 100 100 100 97 100 100 97 100 100 100 100 97 89
90 92 91 92 91 92 92 91 91 92 94 95 95 93 92 94 92 91 93 96 96 94 87 86 87 86 99 98 99 98 100 100 100 100 100 100 95 96 98 99 96 95 96 100
89 89 90 90 90 92 92 91 94 94 93 95 95 94 93 90 88 90 93 96 92 90 87 94 95 91 87 87 86 97 98 99 100 100 100 100 100 100 100 91 90 98 98 94
86 87 89 90 89 90 94 94 95 93 94 96 96 94 94 93 94 97 96 93 82 82 86 93 98 98 97 95 95 97 97 100 100 100 100 98 86 74 75 86 98 97 96 84
87 88 77 76 84 89 86 90 95 95 94 95 96 97 96 94 94 97 97 96 88 88 91 89 88 85 89 88 93 93 99 96 96 98 97 87 92 99 100 100 98 98 86 90
92 75 82 90 90 95 90 85 81 81 79 89 95 96 96 96 95 95 90 84 93 96 93 96 98 87 84 92 96 95 88 87 86 86 88 90 97 100 100 99 99 92 92 85
70 75 91 80 93 74 70 87 83 77 86 89 95 99 88 92 90 85 97 93 85 85 96 96 92 85 83 95 97 98 99 99 99 97 98 100 100 100 100 97 93 88 91 83
83 87 84 88 89 78 82 88 87 75 87 84 91 85 96 98 100 99 99 97 91 82 96 88 78 96 92 73 70 73 70 65 69 75 83 95 100 99 98 97 98 97 94 93
83 84 86 85 89 91 91 94 94 85 89 93 91 90 98 98 100 100 100 97 93 91 90 94 92 92 99 100 99 93 85 72 89 86 88 92 94 95 96 96 94 88 86 82
81 78 83 84 86 91 93 88 93 92 91 98 95 96 100 100 100 98 96 100 100 100 99 99 98 96 97 98 97 98 99 98 100 96 93 91 90 91 95 91 86 79 73 68